DW4554 Weather Reports


time (UTC)temp
C
wind
direction
speed
KPH
gust
KPH
rain 1hr
cm
rain 24hr
cm
rain mn
cm
humidity
%
barometer
mb
20260904083904 21 194 4.8 9.7 0.00 0.03 0.00 70 1016.2
20260904083405 21 186 1.6 8.0 0.00 0.03 0.00 70 1016.3
20260904081904 21 205 6.4 9.7 0.00 0.03 0.00 72 1016.3
20260904080404 20 175 4.8 9.7 0.00 0.03 0.00 73 1016.5
20260904075905 20 173 4.8 9.7 0.00 0.03 0.00 74 1016.6
20260904075404 20 245 6.4 9.7 0.00 0.03 0.00 75 1016.7
20260904074904 20 210 1.6 4.8 0.00 0.03 0.00 75 1016.6
20260904074404 20 222 1.6 4.8 0.00 0.03 0.00 76 1016.5
20260904073905 20 222 4.8 4.8 0.00 0.03 0.00 76 1016.6
20260904072904 19 222 4.8 8.0 0.00 0.03 0.00 76 1016.6
20260904072404 19 204 1.6 4.8 0.00 0.03 0.00 77 1016.5
20260904071905 19 204 3.2 4.8 0.00 0.03 0.00 77 1016.5
20260904071404 18 204 4.8 9.7 0.00 0.03 0.00 78 1016.5
20260904070404 18 209 3.2 4.8 0.00 0.03 0.00 80 1016.5
20260904064904 17 242 1.6 8.0 0.00 0.03 0.00 83 1016.6
20260904064404 17 79 1.6 4.8 0.00 0.03 0.00 83 1016.6
20260904063905 17 58 0.0 0.0 0.00 0.03 0.00 84 1016.5
20260904062904 17 58 0.0 0.0 0.00 0.03 0.00 85 1016.5
20260904062405 17 58 0.0 1.6 0.00 0.03 0.00 85 1016.4
20260904061404 17 58 0.0 0.0 0.00 0.03 0.00 86 1016.5
20260904060904 16 58 0.0 3.2 0.00 0.03 0.00 86 1016.4
20260904060404 16 58 0.0 3.2 0.00 0.03 0.00 86 1016.4
20260904055905 16 58 0.0 3.2 0.00 0.03 0.00 87 1016.3
20260904054404 16 58 1.6 3.2 0.00 0.03 0.00 87 1016.3
20260904053904 16 58 3.2 4.8 0.00 0.03 0.00 87 1016.4
20260904053404 16 58 1.6 3.2 0.00 0.03 0.00 87 1016.3
20260904052905 16 58 1.6 3.2 0.00 0.03 0.00 87 1016.3
20260904052404 16 58 1.6 4.8 0.00 0.03 0.00 88 1016.2
20260904051905 15 56 1.6 4.8 0.00 0.03 0.00 88 1016.2
20260904051404 15 51 0.0 3.2 0.00 0.03 0.00 89 1016.2
20260904050904 15 51 0.0 3.2 0.00 0.03 0.00 89 1016.2
20260904050404 15 51 1.6 4.8 0.00 0.03 0.00 89 1016.3
20260904045904 15 51 1.6 4.8 0.00 0.03 0.00 89 1016.4
20260904045404 15 51 1.6 4.8 0.00 0.03 0.00 89 1016.4
20260904044904 15 51 0.0 1.6 0.00 0.03 0.00 89 1016.4
20260904044404 15 51 0.0 3.2 0.00 0.03 0.00 89 1016.3
20260904043904 15 51 1.6 4.8 0.00 0.03 0.00 89 1016.2
20260904043404 15 51 1.6 3.2 0.00 0.03 0.00 89 1016.4
20260904042904 15 51 1.6 3.2 0.00 0.03 0.00 89 1016.3
20260904041904 15 51 1.6 3.2 0.00 0.03 0.00 89 1016.3
20260904041404 15 51 0.0 1.6 0.00 0.03 0.00 89 1016.4
20260904040904 15 51 0.0 3.2 0.00 0.03 0.00 89 1016.2
20260904040404 15 51 0.0 1.6 0.00 0.03 0.00 89 1016.4
20260904035904 15 51 0.0 3.2 0.00 0.03 0.00 89 1016.4
20260904035405 15 51 1.6 3.2 0.00 0.03 0.00 89 1016.3
20260904034904 15 51 1.6 4.8 0.00 0.03 0.00 89 1016.3
20260904034404 15 51 1.6 3.2 0.00 0.03 0.00 89 1016.3
20260904033904 15 51 1.6 3.2 0.00 0.03 0.00 89 1016.3
20260904033405 15 51 0.0 1.6 0.00 0.03 0.00 89 1016.3
20260904032904 15 51 0.0 1.6 0.00 0.03 0.00 89 1016.4
20260904032404 15 51 0.0 1.6 0.00 0.03 0.00 89 1016.4
20260904031904 15 51 0.0 0.0 0.00 0.03 0.00 89 1016.5
20260904031404 14 51 0.0 1.6 0.00 0.03 0.00 89 1016.6
20260904030904 14 51 0.0 3.2 0.00 0.03 0.00 89 1016.7
20260904030404 14 51 0.0 1.6 0.00 0.03 0.00 89 1016.7
20260904025905 14 51 0.0 0.0 0.00 0.03 0.00 89 1016.6
20260904025404 14 51 0.0 0.0 0.00 0.03 0.00 89 1016.5
20260904024405 14 51 1.6 4.8 0.00 0.03 0.00 89 1016.4
20260904023905 14 51 1.6 3.2 0.00 0.03 0.00 89 1016.5
20260904022905 14 51 0.0 3.2 0.00 0.03 0.00 89 1016.5
20260904022404 14 51 0.0 3.2 0.00 0.03 0.00 89 1016.3
20260904021905 14 51 1.6 4.8 0.00 0.03 0.00 89 1016.3
20260904021405 14 51 1.6 4.8 0.00 0.03 0.00 89 1016.3
20260904020904 14 51 0.0 4.8 0.00 0.03 0.00 89 1016.2
20260904015904 14 51 0.0 1.6 0.00 0.03 0.00 89 1016.2
20260904015405 14 51 0.0 1.6 0.00 0.03 0.00 89 1016.3
20260904014904 14 51 1.6 3.2 0.00 0.03 0.00 89 1016.4
20260904014404 14 51 1.6 1.6 0.00 0.03 0.00 89 1016.5
20260904013904 14 51 0.0 3.2 0.00 0.03 0.00 90 1016.5
20260904012904 14 51 1.6 3.2 0.00 0.03 0.00 89 1016.5
20260904012405 14 51 0.0 3.2 0.00 0.03 0.00 89 1016.5
20260904011904 14 51 0.0 3.2 0.00 0.03 0.00 89 1016.6
20260904011405 14 51 0.0 3.2 0.00 0.03 0.00 89 1016.6
20260904010904 14 51 1.6 3.2 0.00 0.03 0.00 89 1016.7
20260904010405 14 51 0.0 3.2 0.00 0.03 0.00 89 1016.7
20260904005905 14 51 0.0 3.2 0.00 0.03 0.00 89 1016.7
20260904005404 14 51 0.0 0.0 0.00 0.03 0.00 89 1016.6
20260904004905 14 51 0.0 0.0 0.00 0.03 0.00 89 1016.7
20260904004405 14 51 0.0 0.0 0.00 0.03 0.00 90 1016.7
20260904003905 14 51 1.6 4.8 0.00 0.03 0.00 90 1016.8
20260904003404 14 44 3.2 4.8 0.00 0.03 0.00 89 1016.7
20260904002904 14 57 3.2 4.8 0.00 0.03 0.00 89 1016.7
20260904002404 14 44 1.6 3.2 0.00 0.03 0.00 89 1016.8
20260904001905 14 44 0.0 4.8 0.00 0.03 0.00 89 1016.8
20260904001405 14 44 1.6 4.8 0.00 0.03 0.00 89 1016.7
20260904000904 14 44 0.0 3.2 0.00 0.03 0.00 89 1016.8
20260904000404 14 44 0.0 3.2 0.00 0.03 0.00 89 1016.9
20260903235905 14 44 3.2 4.8 0.00 0.03 0.00 89 1016.9
20260903234905 14 44 0.0 0.0 0.00 0.03 0.00 89 1017.1
20260903234404 14 44 0.0 0.0 0.00 0.03 0.00 89 1017.1
20260903233904 14 44 0.0 0.0 0.00 0.03 0.00 89 1017.0
20260903233404 14 44 0.0 1.6 0.00 0.03 0.00 89 1017.0
20260903232404 14 44 3.2 4.8 0.00 0.03 0.00 89 1016.9
20260903231404 14 53 3.2 4.8 0.00 0.03 0.00 88 1017.0
20260903230904 14 56 1.6 3.2 0.00 0.03 0.00 88 1017.1
20260903230404 14 56 1.6 3.2 0.00 0.03 0.00 87 1017.1
20260903225904 14 56 0.0 0.0 0.00 0.03 0.00 87 1017.2
20260903225404 15 56 0.0 0.0 0.00 0.03 0.00 87 1017.2
20260903224904 15 56 0.0 1.6 0.00 0.03 0.00 87 1017.2
20260903224405 15 56 0.0 0.0 0.00 0.03 0.00 87 1017.2
20260903223904 15 56 0.0 0.0 0.00 0.03 0.00 87 1017.1
20260903223405 15 56 0.0 0.0 0.00 0.03 0.00 87 1017.1
20260903222904 15 56 0.0 0.0 0.00 0.03 0.00 86 1017.0
20260903221904 15 56 0.0 0.0 0.00 0.03 0.00 87 1017.1
20260903221404 15 56 0.0 0.0 0.00 0.03 0.00 86 1017.0
20260903220904 15 56 0.0 1.6 0.00 0.03 0.00 86 1017.1
20260903220404 15 56 0.0 0.0 0.00 0.03 0.00 86 1017.2
20260903215405 15 56 0.0 0.0 0.00 0.03 0.03 86 1017.1
20260903214904 15 56 0.0 0.0 0.00 0.03 0.03 86 1017.1
20260903214404 15 56 0.0 0.0 0.00 0.03 0.03 86 1017.2
20260903213906 15 56 0.0 0.0 0.00 0.03 0.03 86 1017.1
20260903213404 15 56 0.0 3.2 0.00 0.03 0.03 85 1017.0
20260903212904 15 55 0.0 0.0 0.00 0.03 0.03 85 1017.0
20260903212404 15 55 0.0 3.2 0.00 0.03 0.03 84 1017.0
20260903211905 15 55 1.6 3.2 0.00 0.03 0.03 84 1016.9
20260903211404 15 55 3.2 4.8 0.00 0.03 0.03 84 1016.8
20260903210904 15 57 0.0 3.2 0.00 0.03 0.03 84 1016.8
20260903205904 16 57 0.0 1.6 0.00 0.03 0.03 83 1016.8
20260903205405 16 57 0.0 4.8 0.00 0.03 0.03 83 1016.8
20260903204904 16 57 0.0 3.2 0.00 0.03 0.03 83 1016.7
20260903204405 16 57 1.6 4.8 0.00 0.03 0.03 82 1016.7
20260903203904 16 57 1.6 4.8 0.00 0.03 0.03 82 1016.7
20260903203404 16 57 3.2 4.8 0.00 0.03 0.03 82 1016.7
20260903202904 16 80 3.2 4.8 0.00 0.03 0.03 82 1016.7
20260903202404 16 80 3.2 4.8 0.00 0.03 0.03 81 1016.6
20260903201904 16 81 3.2 4.8 0.00 0.03 0.03 80 1016.6
20260903201404 16 82 3.2 4.8 0.00 0.03 0.03 80 1016.7
20260903200905 16 85 3.2 4.8 0.00 0.03 0.03 80 1016.6
20260903200404 17 248 1.6 3.2 0.00 0.03 0.03 79 1016.6
20260903195904 17 248 0.0 0.0 0.00 0.03 0.03 78 1016.6
20260903195404 17 248 0.0 1.6 0.00 0.03 0.03 78 1016.6
20260903194904 17 248 1.6 1.6 0.00 0.03 0.03 77 1016.7
20260903194404 17 248 0.0 0.0 0.00 0.03 0.03 77 1016.7
20260903193904 17 248 0.0 0.0 0.00 0.03 0.03 77 1016.5
20260903193404 17 248 0.0 0.0 0.00 0.03 0.03 76 1016.6
20260903192904 17 248 0.0 0.0 0.00 0.03 0.03 75 1016.5
20260903192404 17 248 0.0 0.0 0.00 0.03 0.03 75 1016.5
20260903191904 18 248 0.0 0.0 0.00 0.03 0.03 75 1016.4
20260903191404 18 248 0.0 0.0 0.00 0.03 0.03 74 1016.3
20260903190904 18 248 0.0 0.0 0.00 0.03 0.03 74 1016.4
20260903190404 18 248 0.0 0.0 0.00 0.03 0.03 73 1016.4
20260903185905 18 248 0.0 0.0 0.00 0.03 0.03 73 1016.3
20260903184904 18 248 0.0 0.0 0.00 0.03 0.03 72 1016.3
20260903184404 19 248 0.0 0.0 0.00 0.03 0.03 72 1016.3
20260903183904 19 248 0.0 0.0 0.00 0.03 0.03 71 1016.3
20260903183404 19 248 0.0 0.0 0.00 0.03 0.03 71 1016.3
20260903182904 20 248 0.0 0.0 0.00 0.03 0.03 71 1016.2
20260903182405 20 248 0.0 0.0 0.00 0.03 0.03 70 1016.2
20260903181904 20 248 0.0 0.0 0.00 0.03 0.03 70 1016.3
20260903181404 20 248 0.0 0.0 0.00 0.03 0.03 70 1016.2
20260903180904 20 248 0.0 0.0 0.00 0.03 0.03 69 1016.1
20260903180404 20 248 0.0 0.0 0.00 0.03 0.03 68 1016.0
20260903175904 21 248 0.0 3.2 0.00 0.03 0.03 68 1015.9
20260903175404 21 248 0.0 0.0 0.00 0.03 0.03 67 1015.9
20260903174905 21 248 0.0 0.0 0.00 0.03 0.03 66 1015.8
20260903174405 21 248 0.0 0.0 0.00 0.03 0.03 66 1015.9
20260903173904 21 248 0.0 0.0 0.00 0.03 0.03 65 1015.8
20260903173405 22 248 0.0 0.0 0.00 0.03 0.03 65 1015.9
20260903172904 22 248 0.0 0.0 0.00 0.03 0.03 64 1015.8
20260903172404 22 248 0.0 0.0 0.00 0.03 0.03 63 1015.8
20260903170904 22 248 0.0 0.0 0.00 0.03 0.03 61 1015.8
20260903170404 23 248 0.0 0.0 0.00 0.03 0.03 60 1015.9
20260903165904 23 248 0.0 0.0 0.00 0.03 0.03 60 1015.9
20260903165404 23 248 0.0 0.0 0.00 0.03 0.03 59 1015.8
20260903164906 23 248 0.0 0.0 0.00 0.03 0.03 58 1015.8
20260903163405 24 248 0.0 0.0 0.00 0.03 0.03 55 1015.7
20260903162904 24 248 1.6 4.8 0.00 0.03 0.03 54 1015.8
20260903162404 24 248 1.6 4.8 0.00 0.03 0.03 54 1015.8
20260903161904 25 248 1.6 4.8 0.00 0.03 0.03 53 1015.9
20260903160905 25 248 3.2 4.8 0.00 0.03 0.03 52 1015.8
20260903160405 25 248 0.0 0.0 0.00 0.03 0.03 52 1015.8
20260903155904 25 248 1.6 3.2 0.00 0.03 0.03 51 1015.8
20260903155404 26 248 1.6 3.2 0.00 0.03 0.03 51 1015.8
20260903154904 26 248 3.2 4.8 0.00 0.03 0.03 49 1015.8
20260903154405 26 248 1.6 4.8 0.00 0.03 0.03 49 1015.8
20260903152905 26 281 3.2 9.7 0.00 0.03 0.03 49 1015.9
20260903152404 26 270 3.2 8.0 0.00 0.03 0.03 49 1015.8
20260903151904 26 297 1.6 4.8 0.00 0.03 0.03 50 1015.9
20260903151405 25 276 3.2 8.0 0.00 0.03 0.03 51 1015.9
20260903150904 25 300 1.6 4.8 0.00 0.03 0.03 52 1015.9
20260903150404 25 300 1.6 4.8 0.03 0.03 0.03 52 1015.9
20260903145904 25 300 0.0 4.8 0.03 0.03 0.03 53 1016.0
20260903145404 25 308 3.2 4.8 0.03 0.03 0.03 54 1015.9
20260903144905 25 312 1.6 3.2 0.03 0.03 0.03 54 1015.9
20260903143904 24 312 3.2 4.8 0.03 0.03 0.03 56 1015.9
20260903143404 24 311 0.0 0.0 0.03 0.03 0.03 56 1016.1
20260903142405 24 311 3.2 4.8 0.03 0.03 0.03 57 1016.2
20260903141404 24 313 0.0 0.0 0.03 0.03 0.03 56 1016.0
20260903140904 24 313 0.0 0.0 0.03 0.03 0.03 56 1016.1
20260903140404 24 313 0.0 0.0 0.00 0.00 0.00 55 1016.0
20260903135404 24 313 1.6 4.8 0.00 0.00 0.00 55 1016.1
20260903134904 24 313 1.6 3.2 0.00 0.00 0.00 56 1016.0
20260903133905 24 313 0.0 1.6 0.00 0.00 0.00 57 1016.1
20260903132904 24 313 1.6 4.8 0.00 0.00 0.00 55 1016.2
20260903132404 24 313 1.6 4.8 0.00 0.00 0.00 55 1016.2
20260903131904 24 312 1.6 4.8 0.00 0.00 0.00 55 1016.3
20260903131404 24 311 1.6 4.8 0.00 0.00 0.00 56 1016.3
20260903130905 24 34 1.6 4.8 0.00 0.00 0.00 56 1016.2
20260903130404 23 34 1.6 4.8 0.00 0.00 0.00 56 1016.1
20260903124904 23 73 1.6 4.8 0.00 0.00 0.00 58 1016.6
20260903124404 23 101 0.0 4.8 0.00 0.00 0.00 59 1016.6
20260903123904 23 225 0.0 3.2 0.00 0.00 0.00 58 1016.6
20260903123404 23 225 0.0 3.2 0.00 0.00 0.00 58 1016.8
20260903122904 23 225 0.0 4.8 0.00 0.00 0.00 58 1016.8
20260903121904 22 238 0.0 1.6 0.00 0.00 0.00 60 1017.0
20260903121404 22 238 0.0 4.8 0.00 0.00 0.00 58 1017.1
20260903120404 23 236 4.8 11.3 0.00 0.00 0.00 58 1017.1
20260903115404 23 232 3.2 12.9 0.00 0.00 0.00 57 1017.2
20260903114904 23 214 4.8 16.1 0.00 0.00 0.00 56 1017.2
20260903114405 23 226 6.4 16.1 0.00 0.00 0.00 57 1017.2
20260903113404 23 207 9.7 19.3 0.00 0.00 0.00 57 1017.2
20260903112904 22 152 4.8 14.5 0.00 0.00 0.00 59 1017.1
20260903112404 22 182 3.2 9.7 0.00 0.00 0.00 59 1017.2
20260903111405 22 205 4.8 9.7 0.00 0.00 0.00 63 1017.3
20260903110904 22 201 6.4 14.5 0.00 0.00 0.00 64 1017.3
20260903105904 22 175 4.8 8.0 0.00 0.00 0.00 65 1017.4
20260903105404 22 157 3.2 8.0 0.00 0.00 0.00 64 1017.4
20260903104904 22 156 1.6 4.8 0.00 0.00 0.00 65 1017.4
20260903104404 22 190 3.2 4.8 0.00 0.00 0.00 65 1017.5
20260903103905 22 188 0.0 4.8 0.00 0.00 0.00 66 1017.5
20260903102404 21 180 1.6 4.8 0.00 0.00 0.00 65 1017.6
20260903101904 21 180 1.6 4.8 0.00 0.00 0.00 65 1017.7
20260903101404 21 180 0.0 3.2 0.00 0.00 0.00 65 1017.7
20260903100904 21 180 1.6 8.0 0.00 0.00 0.00 66 1017.8
20260903100404 21 192 1.6 9.7 0.00 0.00 0.00 66 1017.8
20260903095904 21 191 3.2 9.7 0.00 0.00 0.00 66 1017.8
20260903095405 21 199 3.2 8.0 0.00 0.00 0.00 67 1017.8
20260903094904 21 180 0.0 4.8 0.00 0.00 0.00 65 1017.9
20260903094404 21 180 1.6 8.0 0.00 0.00 0.00 66 1018.0
20260903093904 21 179 3.2 8.0 0.00 0.00 0.00 66 1018.0
20260903093404 21 195 1.6 4.8 0.00 0.00 0.00 66 1018.0
20260903092905 21 227 1.6 8.0 0.00 0.00 0.00 67 1018.1
20260903092404 21 198 3.2 8.0 0.00 0.00 0.00 68 1018.1
20260903091404 21 241 3.2 8.0 0.00 0.00 0.00 67 1018.1
20260903090904 21 295 4.8 9.7 0.00 0.00 0.00 66 1018.2
20260903090404 21 280 4.8 9.7 0.00 0.00 0.00 65 1018.2
20260903085904 21 234 3.2 9.7 0.00 0.00 0.00 67 1018.3
20260903085404 21 310 4.8 11.3 0.00 0.00 0.00 66 1018.3
20260903084904 21 297 8.0 16.1 0.00 0.00 0.00 66 1018.3
20260903084404 21 310 6.4 11.3 0.00 0.00 0.00 67 1018.3